Regional Weather Roundup
Issued by NWS

Home | Current Version | Previous Version | Graphics & Text | Print | Product List | Glossary On
Versions: 1 2 3 4 5 6 7 8 9 10 11 12 13 14 15 16 17 18 19 20 21 22 23 24 25 26 27 28 29 30 31 32 33 34 35 36 37 38 39 40 41 42 43 44 45 46 47 48 49 50
000
ASUS43 KBIS 230320
RWRND

NORTH DAKOTA REGIONAL WEATHER ROUNDUP
NATIONAL WEATHER SERVICE BISMARCK ND
1000 PM CDT FRI AUG 22 2014

NOTE: "FAIR" INDICATES FEW OR NO CLOUDS BELOW 12,000 FEET WITH NO
SIGNIFICANT WEATHER AND/OR OBSTRUCTIONS TO VISIBILITY.


NDZ001>003-009>011-017-230400-
NORTHWEST NORTH DAKOTA

CITY           SKY/WX    TMP DP  RH WIND       PRES   REMARKS
WILLISTON      CLOUDY    64  54  69 E12       30.12S
MINOT          CLOUDY    63  59  87 N7        30.13R
MINOT AFB      CLOUDY    63  61  91 NE8       30.13R
$$

NDZ018>021-031>035-040>046-230400-
SOUTHWEST NORTH DAKOTA

CITY           SKY/WX    TMP DP  RH WIND       PRES   REMARKS
BISMARCK       CLOUDY    67  64  90 NE13      30.07R
DICKINSON      CLOUDY    64  61  90 E12       30.08R
GARRISON         N/A     64  60  87 NE8       30.11R
HETTINGER ARPT CLOUDY    67  61  81 E5        30.07R
$$

NDZ004>008-012>016-024-026-027-054-230400-
NORTHEAST NORTH DAKOTA

CITY           SKY/WX    TMP DP  RH WIND       PRES   REMARKS
GRAND FORKS    CLOUDY    67  62  84 N13       30.06S
GRND FRKS AFB  CLOUDY    66  64  93 N13       30.09R
DEVILS LAKE    CLOUDY    64  55  72 NE13      30.10S
$$

NDZ022-023-025-028>030-036>039-047>053-230400-
SOUTHEAST NORTH DAKOTA

CITY           SKY/WX    TMP DP  RH WIND       PRES   REMARKS
FARGO          CLOUDY    69  65  86 N12       30.04S
JAMESTOWN      PTCLDY    64  62  93 NE5       30.07R
$$



USA.gov is the U.S. government's official web portal to all federal, state and local government web resources and services.